Time,TemperatureF,DewpointF,PressureIn,WindDirection,WindDirectionDegrees,WindSpeedMPH,WindSpeedGustMPH,Humidity,HourlyPrecipIn,Conditions,Clouds,dailyrainin,SoftwareType,DateUTC
2013-09-15 00:01:00,62.0,58.0,25.80,ENE,78,9.0,18.0,85,0.00,,,0.03,weatherlink.com 1.10,2013-09-15 06:01:00,
2013-09-15 00:16:00,61.7,57.0,25.80,NE,43,10.0,16.0,85,0.00,,,0.00,weatherlink.com 1.10,2013-09-15 06:16:00,
2013-09-15 00:31:00,61.4,57.0,25.81,ENE,75,10.0,17.0,85,0.00,,,0.00,weatherlink.com 1.10,2013-09-15 06:31:00,
2013-09-15 00:46:00,61.0,57.0,25.81,NNE,19,11.0,14.0,85,0.00,,,0.00,weatherlink.com 1.10,2013-09-15 06:46:00,
2013-09-15 01:01:00,60.8,56.0,25.82,NNE,23,10.0,15.0,85,0.00,,,0.00,weatherlink.com 1.10,2013-09-15 07:01:00,
2013-09-15 01:16:00,60.6,56.0,25.82,NNE,27,7.0,13.0,85,0.00,,,0.00,weatherlink.com 1.10,2013-09-15 07:16:00,
2013-09-15 01:31:00,60.3,56.0,25.83,ENE,67,10.0,12.0,86,0.00,,,0.00,weatherlink.com 1.10,2013-09-15 07:31:00,
2013-09-15 01:46:00,60.0,56.0,25.83,NNE,27,7.0,12.0,87,0.00,,,0.00,weatherlink.com 1.10,2013-09-15 07:46:00,
2013-09-15 02:01:00,59.9,56.0,25.84,NE,41,10.0,13.0,87,0.00,,,0.00,weatherlink.com 1.10,2013-09-15 08:01:00,
2013-09-15 02:16:00,59.7,56.0,25.83,NE,36,12.0,17.0,87,0.00,,,0.00,weatherlink.com 1.10,2013-09-15 08:16:00,
2013-09-15 02:46:00,59.2,55.0,25.83,ENE,72,11.0,17.0,86,0.00,,,0.00,weatherlink.com 1.10,2013-09-15 08:46:00,
2013-09-15 03:01:00,59.2,55.0,25.84,NE,44,10.0,-999.0,86,-99.99,,,0.00,weatherlink.com 1.10,2013-09-15 09:01:00,
2013-09-15 03:16:00,59.1,55.0,25.84,NNE,30,12.0,14.0,86,0.00,,,0.00,weatherlink.com 1.10,2013-09-15 09:16:00,
2013-09-15 03:31:00,59.1,55.0,25.84,North,356,10.0,16.0,85,0.00,,,0.00,weatherlink.com 1.10,2013-09-15 09:31:00,
2013-09-15 03:46:00,59.2,55.0,25.85,NNE,30,11.0,16.0,86,0.00,,,0.00,weatherlink.com 1.10,2013-09-15 09:46:00,
2013-09-15 04:02:00,59.1,56.0,25.86,ENE,58,8.0,12.0,88,0.00,,,0.00,weatherlink.com 1.10,2013-09-15 10:02:00,
2013-09-15 04:17:00,59.0,56.0,25.87,NNE,18,5.0,12.0,88,0.00,,,0.00,weatherlink.com 1.10,2013-09-15 10:17:00,
2013-09-15 04:32:00,59.0,56.0,25.87,NNE,25,7.0,12.0,88,0.00,,,0.00,weatherlink.com 1.10,2013-09-15 10:32:00,
2013-09-15 04:47:00,59.0,56.0,25.87,NE,52,8.0,11.0,88,0.00,,,0.00,weatherlink.com 1.10,2013-09-15 10:47:00,
2013-09-15 05:02:00,59.0,56.0,25.87,NNE,27,6.0,11.0,88,0.00,,,0.00,weatherlink.com 1.10,2013-09-15 11:02:00,
2013-09-15 05:17:00,58.9,55.0,25.88,NNW,328,5.0,10.0,88,0.00,,,0.00,weatherlink.com 1.10,2013-09-15 11:17:00,
2013-09-15 05:32:00,58.5,55.0,25.88,NNE,20,6.0,16.0,89,0.00,,,0.00,weatherlink.com 1.10,2013-09-15 11:32:00,
2013-09-15 05:47:00,58.1,55.0,25.89,North,353,9.0,16.0,90,0.00,,,0.00,weatherlink.com 1.10,2013-09-15 11:47:00,
2013-09-15 06:02:00,57.8,55.0,25.89,NE,49,12.0,14.0,91,0.00,,,0.00,weatherlink.com 1.10,2013-09-15 12:02:00,
2013-09-15 06:17:00,57.2,56.0,25.90,SSE,150,6.0,13.0,94,0.00,,,0.00,weatherlink.com 1.10,2013-09-15 12:17:00,
2013-09-15 06:32:00,57.0,55.0,25.90,NNW,330,6.0,14.0,94,0.00,,,0.00,weatherlink.com 1.10,2013-09-15 12:32:00,
2013-09-15 06:47:00,56.9,55.0,25.91,NE,39,8.0,15.0,94,0.00,,,0.00,weatherlink.com 1.10,2013-09-15 12:47:00,
2013-09-15 07:02:00,56.8,55.0,25.92,NE,35,10.0,13.0,95,0.00,,,0.00,weatherlink.com 1.10,2013-09-15 13:02:00,
2013-09-15 07:17:00,56.9,56.0,25.92,NE,41,11.0,12.0,96,0.00,,,0.00,weatherlink.com 1.10,2013-09-15 13:17:00,
2013-09-15 07:32:00,56.8,56.0,25.92,NNE,24,6.0,13.0,96,0.00,,,0.00,weatherlink.com 1.10,2013-09-15 13:32:00,
2013-09-15 07:47:00,56.6,56.0,25.93,NE,50,15.0,18.0,96,0.00,,,0.00,weatherlink.com 1.10,2013-09-15 13:47:00,
2013-09-15 08:02:00,56.7,56.0,25.93,NNE,30,6.0,15.0,97,0.00,,,0.00,weatherlink.com 1.10,2013-09-15 14:02:00,
2013-09-15 08:17:00,57.2,56.0,25.93,NE,39,14.0,17.0,96,0.00,,,0.00,weatherlink.com 1.10,2013-09-15 14:17:00,
2013-09-15 08:32:00,57.5,56.0,25.94,NNE,14,6.0,17.0,95,0.00,,,0.00,weatherlink.com 1.10,2013-09-15 14:32:00,
2013-09-15 08:47:00,57.3,56.0,25.95,NNE,24,11.0,15.0,94,0.00,,,0.00,weatherlink.com 1.10,2013-09-15 14:47:00,
2013-09-15 09:02:00,57.5,56.0,25.96,North,4,11.0,16.0,94,0.00,,,0.00,weatherlink.com 1.10,2013-09-15 15:02:00,
2013-09-15 09:17:00,57.6,56.0,25.96,NNE,20,15.0,16.0,93,0.00,,,0.00,weatherlink.com 1.10,2013-09-15 15:17:00,
2013-09-15 09:32:00,57.4,55.0,25.97,ENE,58,8.0,15.0,92,0.00,,,0.00,weatherlink.com 1.10,2013-09-15 15:32:00,
2013-09-15 09:47:00,57.3,55.0,25.97,NE,53,8.0,15.0,93,0.00,,,0.00,weatherlink.com 1.10,2013-09-15 15:47:00,
2013-09-15 10:03:00,57.3,55.0,25.98,North,350,11.0,15.0,93,0.00,,,0.00,weatherlink.com 1.10,2013-09-15 16:03:00,
2013-09-15 10:18:00,57.0,55.0,25.98,North,360,9.0,16.0,94,0.00,,,0.00,weatherlink.com 1.10,2013-09-15 16:18:00,
2013-09-15 10:33:00,57.1,55.0,25.99,NE,46,12.0,14.0,94,0.00,,,0.00,weatherlink.com 1.10,2013-09-15 16:33:00,
2013-09-15 10:48:00,57.5,56.0,25.99,North,1,9.0,14.0,93,0.00,,,0.00,weatherlink.com 1.10,2013-09-15 16:48:00,
2013-09-15 11:03:00,58.4,56.0,25.99,ENE,64,19.0,19.0,91,0.00,,,0.00,weatherlink.com 1.10,2013-09-15 17:03:00,
2013-09-15 11:18:00,59.3,56.0,26.00,North,360,13.0,19.0,87,0.00,,,0.00,weatherlink.com 1.10,2013-09-15 17:18:00,
2013-09-15 11:33:00,59.7,55.0,26.00,East,89,10.0,20.0,85,0.00,,,0.00,weatherlink.com 1.10,2013-09-15 17:33:00,
2013-09-15 11:48:00,60.1,55.0,26.00,ENE,61,15.0,20.0,82,0.00,,,0.00,weatherlink.com 1.10,2013-09-15 17:48:00,
2013-09-15 12:03:00,60.7,55.0,26.00,NE,56,13.0,16.0,82,0.00,,,0.00,weatherlink.com 1.10,2013-09-15 18:03:00,
2013-09-15 12:18:00,61.5,55.0,26.00,NE,36,8.0,17.0,78,0.00,,,0.00,weatherlink.com 1.10,2013-09-15 18:18:00,
2013-09-15 12:33:00,62.0,54.0,26.00,NE,56,11.0,16.0,75,0.00,,,0.00,weatherlink.com 1.10,2013-09-15 18:33:00,
2013-09-15 12:48:00,61.5,53.0,26.00,ENE,72,14.0,17.0,73,0.00,,,0.00,weatherlink.com 1.10,2013-09-15 18:48:00,
2013-09-15 13:03:00,61.7,52.0,26.01,East,86,11.0,18.0,71,0.00,,,0.00,weatherlink.com 1.10,2013-09-15 19:03:00,
2013-09-15 13:18:00,61.9,52.0,26.01,East,82,17.0,17.0,69,0.00,,,0.00,weatherlink.com 1.10,2013-09-15 19:18:00,
2013-09-15 13:33:00,62.0,52.0,26.01,ENE,70,16.0,19.0,69,0.00,,,0.00,weatherlink.com 1.10,2013-09-15 19:33:00,
2013-09-15 13:48:00,62.8,52.0,26.01,NNE,32,13.0,18.0,69,0.00,,,0.00,weatherlink.com 1.10,2013-09-15 19:48:00,
2013-09-15 14:03:00,62.4,52.0,26.01,NE,43,9.0,16.0,70,0.00,,,0.00,weatherlink.com 1.10,2013-09-15 20:03:00,
2013-09-15 14:18:00,61.6,53.0,26.02,ENE,72,11.0,17.0,73,0.00,,,0.00,weatherlink.com 1.10,2013-09-15 20:18:00,
2013-09-15 14:33:00,61.8,53.0,26.02,ENE,58,11.0,18.0,73,0.00,,,0.00,weatherlink.com 1.10,2013-09-15 20:33:00,
2013-09-15 14:48:00,61.7,53.0,26.01,ENE,72,13.0,14.0,72,0.00,,,0.00,weatherlink.com 1.10,2013-09-15 20:48:00,
2013-09-15 15:03:00,60.3,53.0,26.02,NNE,32,11.0,16.0,76,0.00,,,0.00,weatherlink.com 1.10,2013-09-15 21:03:00,
2013-09-15 15:18:00,60.4,52.0,26.02,ENE,67,14.0,19.0,75,0.00,,,0.00,weatherlink.com 1.10,2013-09-15 21:18:00,
2013-09-15 15:33:00,60.3,52.0,26.02,ESE,111,8.0,16.0,75,0.00,,,0.00,weatherlink.com 1.10,2013-09-15 21:33:00,
2013-09-15 15:48:00,60.3,53.0,26.02,ENE,77,10.0,14.0,76,0.00,,,0.00,weatherlink.com 1.10,2013-09-15 21:48:00,
2013-09-15 16:03:00,61.1,52.0,26.02,East,98,6.0,15.0,71,0.00,,,0.00,weatherlink.com 1.10,2013-09-15 22:03:00,
2013-09-15 16:18:00,61.4,52.0,26.02,East,79,14.0,15.0,70,0.00,,,0.00,weatherlink.com 1.10,2013-09-15 22:18:00,
2013-09-15 16:33:00,60.8,52.0,26.02,East,82,6.0,13.0,72,0.00,,,0.00,weatherlink.com 1.10,2013-09-15 22:33:00,
2013-09-15 16:48:00,61.1,52.0,26.01,East,84,11.0,13.0,71,0.00,,,0.00,weatherlink.com 1.10,2013-09-15 22:48:00,
2013-09-15 17:03:00,60.7,50.0,26.02,ENE,78,6.0,13.0,69,0.00,,,0.00,weatherlink.com 1.10,2013-09-15 23:03:00,
2013-09-15 17:18:00,60.6,50.0,26.02,ESE,105,7.0,12.0,69,0.00,,,0.00,weatherlink.com 1.10,2013-09-15 23:18:00,
2013-09-15 17:33:00,60.5,51.0,26.02,ESE,115,9.0,11.0,70,0.00,,,0.00,weatherlink.com 1.10,2013-09-15 23:33:00,
2013-09-15 17:48:00,59.7,51.0,26.02,ENE,73,12.0,13.0,74,0.00,,,0.00,weatherlink.com 1.10,2013-09-15 23:48:00,
2013-09-15 18:03:00,59.5,51.0,26.02,ENE,72,8.0,12.0,74,0.00,,,0.00,weatherlink.com 1.10,2013-09-16 00:03:00,
2013-09-15 18:18:00,59.0,51.0,26.02,East,81,6.0,14.0,75,0.00,,,0.00,weatherlink.com 1.10,2013-09-16 00:18:00,
2013-09-15 18:33:00,58.6,51.0,26.02,East,84,10.0,11.0,75,0.00,,,0.00,weatherlink.com 1.10,2013-09-16 00:33:00,
2013-09-15 18:48:00,57.9,51.0,26.02,East,82,6.0,8.0,77,0.00,,,0.00,weatherlink.com 1.10,2013-09-16 00:48:00,
2013-09-15 19:03:00,57.3,51.0,26.02,East,89,8.0,8.0,79,0.00,,,0.00,weatherlink.com 1.10,2013-09-16 01:03:00,
2013-09-15 19:18:00,56.9,51.0,26.02,East,86,5.0,8.0,80,0.00,,,0.00,weatherlink.com 1.10,2013-09-16 01:18:00,
2013-09-15 19:33:00,55.8,50.0,26.02,East,87,4.0,5.0,82,0.00,,,0.00,weatherlink.com 1.10,2013-09-16 01:33:00,
2013-09-15 19:48:00,54.7,50.0,26.02,ESE,102,3.0,5.0,84,0.00,,,0.00,weatherlink.com 1.10,2013-09-16 01:48:00,
2013-09-15 20:03:00,53.8,50.0,26.02,East,90,4.0,6.0,86,0.00,,,0.00,weatherlink.com 1.10,2013-09-16 02:03:00,
2013-09-15 20:18:00,53.2,50.0,26.03,East,94,3.0,5.0,87,0.00,,,0.00,weatherlink.com 1.10,2013-09-16 02:18:00,
2013-09-15 20:34:00,53.0,49.0,26.03,ESE,113,4.0,5.0,87,0.00,,,0.00,weatherlink.com 1.10,2013-09-16 02:34:00,
2013-09-15 20:48:00,52.5,49.0,26.03,SE,125,3.0,6.0,88,0.00,,,0.00,weatherlink.com 1.10,2013-09-16 02:48:00,
2013-09-15 21:03:00,51.7,49.0,26.03,SE,125,4.0,5.0,89,0.00,,,0.00,weatherlink.com 1.10,2013-09-16 03:03:00,
2013-09-15 21:18:00,51.2,48.0,26.03,ESE,120,3.0,5.0,90,0.00,,,0.00,weatherlink.com 1.10,2013-09-16 03:18:00,
2013-09-15 21:33:00,50.8,48.0,26.03,ESE,113,3.0,5.0,91,0.00,,,0.00,weatherlink.com 1.10,2013-09-16 03:33:00,
2013-09-15 21:49:00,50.3,48.0,26.04,SE,129,2.0,4.0,92,0.00,,,0.00,weatherlink.com 1.10,2013-09-16 03:49:00,
2013-09-15 22:04:00,50.0,48.0,26.04,East,101,2.0,3.0,93,0.00,,,0.00,weatherlink.com 1.10,2013-09-16 04:04:00,
2013-09-15 22:19:00,49.7,48.0,26.04,SE,145,1.0,3.0,93,0.00,,,0.00,weatherlink.com 1.10,2013-09-16 04:19:00,
2013-09-15 22:34:00,49.1,48.0,26.04,South,186,2.0,3.0,94,0.00,,,0.00,weatherlink.com 1.10,2013-09-16 04:34:00,
2013-09-15 22:49:00,49.0,48.0,26.04,SSE,153,3.0,4.0,95,0.00,,,0.00,weatherlink.com 1.10,2013-09-16 04:49:00,
2013-09-15 23:04:00,48.8,48.0,26.04,South,173,3.0,5.0,95,0.00,,,0.00,weatherlink.com 1.10,2013-09-16 05:04:00,
2013-09-15 23:19:00,48.4,47.0,26.04,SSE,147,4.0,5.0,95,0.00,,,0.00,weatherlink.com 1.10,2013-09-16 05:19:00,
2013-09-15 23:34:00,49.4,48.0,26.04,SSE,153,3.0,5.0,96,0.00,,,0.00,weatherlink.com 1.10,2013-09-16 05:34:00,
2013-09-15 23:49:00,50.6,50.0,26.03,South,175,4.0,5.0,96,0.00,,,0.00,weatherlink.com 1.10,2013-09-16 05:49:00,